Shelbyville, IN

2:51 AM EST on December 09, 2019 (GMT -0500)
Shelbyville Municipal

Weather History for KGEZ - November, 2019

Change the Weather History Date:

Thursday, November 14, 2019

  Actual Average Record
Temperature  
Mean Temperature 34 °F 45 °F  
Max Temperature 42 °F 54 °F 72 °F (2011)
Min Temperature 26 °F 35 °F 18 °F (2014)
Degree Days  
Heating Degree Days 31 20  
Month to date heating degree days 408 251  
Since 1 July heating degree days 684 686  
Cooling Degree Days 0 0  
Month to date cooling degree days 0 0  
Year to date cooling degree days 1330 913  
Moisture  
Dew Point 23 °F    
Average Humidity 63    
Maximum Humidity 81    
Minimum Humidity 45    
Precipitation  
Precipitation 0.00 in 0.12 in 0.59 in (2011)
Month to date precipitation 0.45 1.72  
Year to date precipitation 37.79 38.28  
Sea Level Pressure  
Sea Level Pressure 30.25 in    
Wind  
Wind Speed 6 mph (WSW)    
Max Wind Speed 12 mph    
Max Gust Speed 16 mph    
Visibility 10 miles    
Events      
T = Trace of Precipitation, MM = Missing Value Source: NWS Daily Summary

Daily Weather History Graph

Daily Weather History Graph

Search for Another Location

Airport or City:

Astronomy

Nov. 14, 2019 Rise Set
Actual Time 7:26 AM EST 5:28 PM EST
Civil Twilight 6:57 AM EST 5:57 PM EST
Nautical Twilight 6:24 AM EST 6:29 PM EST
Astronomical Twilight 5:52 AM EST 7:01 PM EST
Moon 7:14 PM EST (11/14) 9:20 AM EST (11/14)
Length of Visible Light 11h 00m
Length of Day
10h 02m
Waning Gibbous, 95% of the Moon is Illuminated
Nov 14
Waning Gibbous
Nov 19
Last Quarter
Nov 26
New
Dec 4
First Quarter
Dec 12
Full

Hourly Weather History & Observations

Time (EST) Temp. Windchill Dew Point Humidity Pressure Visibility Wind Dir Wind Speed Gust Speed Precip Events Conditions
12:53 AM 28.9 °F 23.9 °F 21.0 °F 72% 30.18 in 10.0 mi SSW 4.6 mph - N/A   Overcast
1:53 AM 28.9 °F 21.9 °F 21.0 °F 72% 30.17 in 10.0 mi South 6.9 mph - N/A   Scattered Clouds
2:53 AM 28.9 °F 21.1 °F 21.0 °F 72% 30.17 in 10.0 mi South 8.1 mph - N/A   Overcast
3:53 AM 28.9 °F 21.1 °F 21.9 °F 75% 30.18 in 10.0 mi South 8.1 mph - N/A   Overcast
4:53 AM 30.0 °F 22.4 °F 21.9 °F 72% 30.18 in 10.0 mi South 8.1 mph - N/A   Overcast
5:53 AM 30.0 °F 22.4 °F 21.9 °F 72% 30.19 in 10.0 mi South 8.1 mph - N/A   Overcast
7:53 AM 27.0 °F 21.6 °F 21.0 °F 78% 30.23 in 10.0 mi South 4.6 mph - N/A   Partly Cloudy
8:53 AM 30.0 °F 24.1 °F 23.0 °F 75% 30.24 in 10.0 mi South 5.8 mph - N/A   Clear
9:53 AM 33.1 °F 26.9 °F 21.9 °F 64% 30.25 in 10.0 mi SW 6.9 mph - N/A   Clear
10:53 AM 34.0 °F 28.8 °F 21.9 °F 61% 30.26 in 10.0 mi WSW 5.8 mph - N/A   Mostly Cloudy
11:53 AM 36.0 °F 30.3 °F 21.9 °F 57% 30.25 in 10.0 mi SW 6.9 mph - N/A   Clear
12:53 PM 37.9 °F 35.5 °F 23.0 °F 55% 30.24 in 10.0 mi SSW 3.5 mph - N/A   Mostly Cloudy
1:53 PM 39.9 °F 34.5 °F 23.0 °F 51% 30.25 in 10.0 mi WSW 8.1 mph - N/A   Mostly Cloudy
2:53 PM 42.1 °F 36.1 °F 23.0 °F 47% 30.24 in 10.0 mi West 10.4 mph - N/A   Mostly Cloudy
3:53 PM 41.0 °F 36.4 °F 23.0 °F 49% 30.26 in 10.0 mi West 6.9 mph - N/A   Overcast
4:53 PM 39.9 °F 36.7 °F 24.1 °F 53% 30.27 in 10.0 mi West 4.6 mph - N/A   Overcast
5:53 PM 36.0 °F 32.1 °F 24.1 °F 62% 30.28 in 10.0 mi WNW 4.6 mph - N/A   Mostly Cloudy
6:53 PM 37.0 °F 33.3 °F 25.0 °F 62% 30.30 in 10.0 mi WNW 4.6 mph - N/A   Overcast
7:53 PM 34.0 °F 28.8 °F 24.1 °F 67% 30.31 in 10.0 mi WNW 5.8 mph - N/A   Scattered Clouds
8:53 PM 30.9 °F 26.2 °F 24.1 °F 76% 30.33 in 10.0 mi NNW 4.6 mph - N/A   Clear
9:53 PM 30.0 °F 23.2 °F 24.1 °F 79% 30.34 in 10.0 mi NNW 6.9 mph - N/A   Clear
10:53 PM 28.0 °F 21.7 °F 23.0 °F 81% 30.34 in 10.0 mi NW 5.8 mph - N/A   Clear
11:53 PM 26.1 °F - 21.9 °F 84% 30.35 in 10.0 mi Calm Calm - N/A   Clear